Simultaneous Nadir Overpasses (SNOs) Predictions

Prediction of SNOs between AQUA and GOES-15 Satellite Orbit:

Table of predicted SNOs for the next 14.0 days since TLE Epoch: 11/2/2011
Index Date Time (AQUA) AQUA Lat,Lon GOES-15 Lat,Lon Distance(km) Time Diff (sec)
1 11/04/2011 08:15:38 -0.59,-100.27 0.08,-103.41 357.82 51
2 11/04/2011 20:37:04 -0.36,-105.49 -0.06,-104.07 161.60 69
3 11/06/2011 20:24:58 0.57,-102.60 -0.07,-105.68 349.71 52
4 11/07/2011 08:46:14 0.49,-107.76 0.05,-105.86 217.65 66
5 11/09/2011 08:34:08 -0.48,-104.88 0.07,-107.47 293.91 59
6 11/09/2011 20:55:35 -0.44,-110.11 -0.04,-108.12 225.54 64
7 11/11/2011 20:43:27 0.46,-107.20 -0.06,-109.73 286.13 59
8 11/12/2011 09:04:43 0.58,-112.37 0.03,-109.91 280.95 60
9 11/14/2011 08:52:36 -0.41,-109.49 0.05,-111.51 230.38 65
10 11/14/2011 21:14:02 -0.54,-114.71 -0.03,-112.15 289.44 59




NCC Satellite Simultaneous Nadir Overpasses (SNOs) Prediction Service
